Location: Ciserano
(45.5833°N, 9.6000°E)
Time: 07:21:05
(UTC+00:00)

Cosmos 1295 Rocket - Pass Details

Date: 18 April 2021
Orbit: 944 x 993 km, 82.9° (Epoch: 13 May)

Event Time Altitude Azimuth Distance (km) Brightness Sun altitude
Rises 23:34:07 0° 355° (N) 3,672 8.6 -33.2°
Reaches altitude 10° 23:36:41 10° 360° (N) 2,728 7.7 -33.1°
Enters shadow 23:42:21 53° 61° (ENE) 1,188 5.0 -33.0°
